New Bedford, MA

8:48 AM EST on January 20, 2018 (GMT -0500)
New Bedford Regional

Weather History for KEWB - April, 2012

Change the Weather History Date:

Sunday, April 29, 2012

  Actual Average Record
Temperature  
Mean Temperature 48 °F -  
Max Temperature 60 °F 59 °F 80 °F (2017)
Min Temperature 37 °F 42 °F 28 °F (2001)
Degree Days  
Heating Degree Days 16    
Moisture  
Dew Point 17 °F    
Average Humidity 31    
Maximum Humidity 61    
Minimum Humidity 16    
Precipitation  
Precipitation 0.00 in - - ()
Sea Level Pressure  
Sea Level Pressure 30.08 in    
Wind  
Wind Speed 6 mph (NW)    
Max Wind Speed 17 mph    
Max Gust Speed 29 mph    
Visibility 10 miles    
Events      
Averages and records for this station are not official NWS values.
T = Trace of Precipitation, MM = Missing Value Source: NWS Daily Summary

Daily Weather History Graph

Daily Weather History Graph

Search for Another Location

Airport or City:

Trip Planner

Search our weather history database for the weather conditions in past years. The results will help you decide how hot, cold, wet, or windy it might be!

Date:

Astronomy

Apr. 29, 2012 Rise Set
Actual Time 5:42 AM EDT 7:40 PM EDT
Civil Twilight 5:12 AM EDT 8:10 PM EDT
Nautical Twilight 4:35 AM EDT 8:47 PM EDT
Astronomical Twilight 3:55 AM EDT 9:27 PM EDT
Moon 12:23 PM EDT (4/29) 1:37 AM EDT (4/29)
Length of Visible Light 14h 58m
Length of Day
13h 57m
First Quarter, 53% of the Moon is Illuminated
Apr 29
First Quarter
May 5
Full
May 12
Last Quarter
May 20
New
May 28
First Quarter

Hourly Weather History & Observations

Time (EDT) Temp. Windchill Dew Point Humidity Pressure Visibility Wind Dir Wind Speed Gust Speed Precip Events Conditions
12:53 AM 46.0 °F 43.1 °F 33.1 °F 61% 30.09 in 10.0 mi SW 5.8 mph - N/A   Clear
1:53 AM 46.0 °F 44.8 °F 23.0 °F 40% 30.08 in 10.0 mi WNW 3.5 mph - N/A   Clear
2:53 AM 46.0 °F - 19.0 °F 34% 30.06 in 10.0 mi Calm Calm - N/A   Clear
3:53 AM 42.1 °F 40.2 °F 18.0 °F 38% 30.07 in 10.0 mi Variable 3.5 mph - N/A   Clear
4:53 AM 39.9 °F - 19.9 °F 45% 30.08 in 10.0 mi Calm Calm - N/A   Clear
5:53 AM 37.0 °F 34.5 °F 23.0 °F 57% 30.10 in 10.0 mi NNW 3.5 mph - N/A   Clear
6:53 AM 39.9 °F - 24.1 °F 53% 30.12 in 10.0 mi Calm Calm - N/A   Clear
7:53 AM 46.0 °F 43.1 °F 21.9 °F 39% 30.12 in 10.0 mi North 5.8 mph - N/A   Clear
8:53 AM 48.9 °F - 16.0 °F 27% 30.11 in 10.0 mi Variable 4.6 mph - N/A   Clear
9:53 AM 51.1 °F - 14.0 °F 23% 30.09 in 10.0 mi WNW 8.1 mph - N/A   Clear
10:53 AM 54.0 °F - 18.0 °F 24% 30.07 in 10.0 mi West 12.7 mph - N/A   Clear
11:53 AM 55.0 °F - 16.0 °F 22% 30.04 in 10.0 mi WSW 16.1 mph 23.0 mph N/A   Clear
12:53 PM 57.9 °F - 12.0 °F 16% 30.02 in 10.0 mi West 16.1 mph 25.3 mph N/A   Clear
1:53 PM 57.9 °F - 14.0 °F 18% 30.01 in 10.0 mi WNW 17.3 mph 27.6 mph N/A   Clear
2:53 PM 60.1 °F - 15.1 °F 17% 30.00 in 10.0 mi NW 15.0 mph 26.5 mph N/A   Clear
3:53 PM 60.1 °F - 12.9 °F 16% 29.99 in 10.0 mi NNW 12.7 mph 28.8 mph N/A   Clear
4:53 PM 59.0 °F - 15.1 °F 18% 30.00 in 10.0 mi WNW 16.1 mph 27.6 mph N/A   Clear
5:53 PM 57.9 °F - 15.1 °F 19% 30.02 in 10.0 mi NW 8.1 mph 16.1 mph N/A   Clear
6:53 PM 55.9 °F - 14.0 °F 19% 30.03 in 10.0 mi North 5.8 mph - N/A   Clear
7:53 PM 52.0 °F - 12.0 °F 20% 30.07 in 10.0 mi North 4.6 mph - N/A   Clear
8:53 PM 51.1 °F - 7.0 °F 17% 30.12 in 10.0 mi NNW 3.5 mph - N/A   Clear
9:53 PM 46.9 °F - 10.0 °F 22% 30.15 in 10.0 mi Calm Calm - N/A   Clear
10:53 PM 39.9 °F - 19.9 °F 45% 30.18 in 10.0 mi Calm Calm - N/A   Clear
11:53 PM 37.0 °F - 19.9 °F 50% 30.21 in 10.0 mi Calm Calm - N/A   Clear